Weather History for KMFR - January, 2014

Change the Weather History Date:

Tuesday, January 21, 2014

  Actual Average Record
Temperature  
Mean Temperature 39 °F 41 °F  
Max Temperature 50 °F 49 °F 71 °F (1981)
Min Temperature 27 °F 33 °F 1 °F (1962)
Degree Days  
Heating Degree Days 26 24  
Month to date heating degree days 556 531  
Since 1 July heating degree days 2647 2297  
Cooling Degree Days 0 0  
Month to date cooling degree days 0 0  
Year to date cooling degree days 0 0  
Moisture  
Dew Point 29 °F    
Average Humidity 76    
Maximum Humidity 100    
Minimum Humidity 52    
Precipitation  
Precipitation T in 0.07 in 1.66 in (1943)
Month to date precipitation 0.53 1.77  
Year to date precipitation 0.53 1.77  
Snow  
Snow T in 0.00 in - ()
Month to date snowfall T 0.9  
Since 1 July snowfall 3.4 2.6  
Snow Depth 0.00 in    
Sea Level Pressure  
Sea Level Pressure 30.36 in    
Wind  
Wind Speed 1 mph (North)    
Max Wind Speed 6 mph    
Max Gust Speed 7 mph    
Visibility 2 miles    
Events Fog , Snow    
T = Trace of Precipitation, MM = Missing Value Source: NWS Daily Summary

Daily Weather History Graph

Daily Weather History Graph

Search for Another Location

Airport or City:

Trip Planner

Search our weather history database for the weather conditions in past years. The results will help you decide how hot, cold, wet, or windy it might be!

Date:

Astronomy

Jan. 21, 2014 Rise Set
Actual Time 7:34 AM PST 5:11 PM PST
Civil Twilight 7:03 AM PST 5:42 PM PST
Nautical Twilight 6:29 AM PST 6:16 PM PST
Astronomical Twilight 5:56 AM PST 6:49 PM PST
Moon 10:57 PM PST (1/21) 10:00 AM PST (1/21)
Length of Visible Light 10h 38m
Length of Day
9h 37m
Waning Gibbous, 73% of the Moon is Illuminated
Jan 21
Waning Gibbous
Jan 23
Last Quarter
Jan 30
New
Feb 6
First Quarter
Feb 14
Full

Hourly Weather History & Observations

Time (PST) Temp. Windchill Dew Point Humidity Pressure Visibility Wind Dir Wind Speed Gust Speed Precip Events Conditions
12:01 AM 28.0 °F - 25.0 °F 88% 30.32 in 0.5 mi Calm Calm - N/A Fog Light Freezing Fog
12:05 AM 28.0 °F - 25.0 °F 88% 30.32 in 0.2 mi Calm Calm - N/A Fog Light Freezing Fog
12:14 AM 28.0 °F - 27.0 °F 96% 30.32 in 0.2 mi Calm Calm - N/A Fog Light Freezing Fog
12:39 AM 28.0 °F - 25.0 °F 88% 30.32 in 0.2 mi Calm Calm - N/A Fog Light Freezing Fog
12:53 AM 28.0 °F - 27.0 °F 96% 30.36 in 0.2 mi Calm Calm - N/A Fog Light Freezing Fog
1:14 AM 28.0 °F - 25.0 °F 88% 30.32 in 0.2 mi Calm Calm - N/A Fog Light Freezing Fog
1:24 AM 27.0 °F - 26.1 °F 96% 30.32 in 0.2 mi Calm Calm - N/A Fog Light Freezing Fog
1:53 AM 27.0 °F - 26.1 °F 96% 30.35 in 0.2 mi Calm Calm - N/A Fog Light Freezing Fog
2:03 AM 27.0 °F - 26.1 °F 96% 30.32 in 0.2 mi Calm Calm - N/A Fog Light Freezing Fog
2:53 AM 28.0 °F - 27.0 °F 96% 30.36 in 0.2 mi Calm Calm - N/A Fog Light Freezing Fog
3:53 AM 28.0 °F - 27.0 °F 96% 30.37 in 0.2 mi Calm Calm - N/A Fog Light Freezing Fog
4:53 AM 28.0 °F - 27.0 °F 96% 30.38 in 0.2 mi Calm Calm - N/A Fog Light Freezing Fog
5:02 AM 28.0 °F - 27.0 °F 96% 30.35 in 0.2 mi Calm Calm - N/A Fog Light Freezing Fog
5:53 AM 28.9 °F - 26.1 °F 89% 30.38 in 0.2 mi Calm Calm - N/A Fog Light Freezing Fog
6:53 AM 28.9 °F - 26.1 °F 89% 30.40 in 0.2 mi Calm Calm - N/A Fog Light Freezing Fog
7:53 AM 28.0 °F - 26.1 °F 92% 30.41 in 0.2 mi Calm Calm - N/A Fog Light Freezing Fog
7:58 AM 28.0 °F - 26.1 °F 92% 30.37 in 0.2 mi Calm Calm - N/A Fog Light Freezing Fog
8:45 AM 28.0 °F - 26.1 °F 92% 30.38 in 0.2 mi Calm Calm - N/A Fog Light Freezing Fog
8:53 AM 28.9 °F - 26.1 °F 89% 30.42 in 0.2 mi Calm Calm - N/A Fog Light Freezing Fog
9:11 AM 28.9 °F - 27.0 °F 92% 30.38 in 0.2 mi Calm Calm - N/A Fog Light Freezing Fog
9:18 AM 28.9 °F - 27.0 °F 92% 30.39 in 0.2 mi Calm Calm - 0.00 in Fog , Snow Light Snow
9:26 AM 28.9 °F - 27.0 °F 92% 30.39 in 0.2 mi Calm Calm - 0.00 in Fog , Snow Light Snow
9:53 AM 28.9 °F - 27.0 °F 92% 30.44 in 0.2 mi Calm Calm - 0.00 in Fog Light Freezing Fog
10:46 AM 30.9 °F - 28.9 °F 92% 30.40 in 0.2 mi Calm Calm - N/A Fog Light Freezing Fog
10:53 AM 30.9 °F - 28.9 °F 92% 30.44 in 0.2 mi Calm Calm - N/A Fog Light Freezing Fog
11:39 AM 32.0 °F - 30.0 °F 92% 30.37 in 0.2 mi Calm Calm - N/A Fog Fog
11:51 AM 32.0 °F 28.7 °F 30.2 °F 93% 30.37 in 0.2 mi NNE 3.5 mph - N/A Fog Fog
11:53 AM 32.0 °F - 30.0 °F 92% 30.41 in 0.2 mi Calm Calm - N/A Fog Fog
12:01 PM 32.0 °F - 30.9 °F 96% 30.37 in 0.5 mi Calm Calm - N/A Fog Fog
12:11 PM 32.0 °F 28.7 °F 30.9 °F 96% 30.36 in 0.2 mi North 3.5 mph - N/A Fog Fog
12:38 PM 32.0 °F - 32.0 °F 100% 30.34 in 0.2 mi Calm Calm - N/A Fog Fog
12:53 PM 33.1 °F 30.0 °F 33.1 °F 100% 30.38 in 0.2 mi West 3.5 mph - N/A Fog Fog
1:10 PM 34.0 °F - 33.1 °F 96% 30.33 in 0.5 mi Calm Calm - N/A Fog Fog
1:37 PM 36.0 °F - 33.1 °F 89% 30.32 in 2.5 mi Calm Calm - N/A   Overcast
1:49 PM 37.4 °F - 33.8 °F 87% 30.32 in 3.0 mi Calm Calm - N/A   Mostly Cloudy
1:53 PM 37.9 °F - 34.0 °F 86% 30.35 in 4.0 mi Calm Calm - N/A   Scattered Clouds
2:53 PM 44.1 °F - 35.1 °F 71% 30.34 in 9.0 mi Calm Calm - N/A   Clear
3:53 PM 50.0 °F - 34.0 °F 54% 30.32 in 10.0 mi Calm Calm - N/A   Clear
4:53 PM 46.0 °F 44.8 °F 35.1 °F 66% 30.32 in 10.0 mi NNW 3.5 mph - N/A   Clear
5:53 PM 39.0 °F - 34.0 °F 82% 30.32 in 10.0 mi Calm Calm - N/A   Clear
6:53 PM 37.9 °F 35.5 °F 33.1 °F 83% 30.33 in 10.0 mi SE 3.5 mph - N/A   Clear
7:53 PM 35.1 °F - 30.9 °F 85% 30.35 in 7.0 mi Calm Calm - N/A   Clear
8:53 PM 33.1 °F 30.0 °F 30.0 °F 89% 30.36 in 5.0 mi South 3.5 mph - N/A   Clear
9:53 PM 32.0 °F - 28.9 °F 88% 30.36 in 6.0 mi Calm Calm - N/A   Clear
10:53 PM 30.9 °F - 28.0 °F 89% 30.39 in 4.0 mi Calm Calm - N/A   Clear
11:53 PM 30.0 °F - 27.0 °F 88% 30.40 in 4.0 mi Calm Calm - N/A   Clear